Regional Weather Roundup
Issued by NWS

Current Version | Previous Version | Text Only | Print | Product List | Glossary On
Versions: 1 2 3 4 5 6 7 8 9 10 11 12 13 14 15 16 17 18 19 20 21 22 23 24 25 26 27 28 29 30 31 32 33 34 35 36 37 38 39 40 41 42 43 44 45 46 47 48 49 50
000
ASUS42 KKEY 102010
RWRKEY

FLORIDA REGIONAL WEATHER ROUNDUP FOR THE FLORIDA KEYS
NATIONAL WEATHER SERVICE KEY WEST FLORIDA
300 PM EST WED FEB 10 2016

...SOUTH FLORIDA AND THE KEYS...

CITY           SKY/WX    TMP DP  RH WIND       PRES   REMARKS
FORT MYERS     MOSUNNY   62  43  49 NW16      30.19S
SW REGIONAL AP MOSUNNY   63  42  46 NW12      30.19F
NAPLES         MOSUNNY   61  42  49 NW9       30.20F
MIAMI          PTSUNNY   61  41  47 NW7       30.20S
WEST KENDALL   MOSUNNY   61  43  51 NW7       30.20S
HOMESTEAD      MOSUNNY   64  45  50 NW9       30.18F
MARATHON       MOSUNNY   65  51  60 N6        30.19F
BOCA CHICA NAS CLOUDY    66  52  60 NW7       30.20S
KEY WEST INTL  CLOUDY    68  55  63 N6        30.20F

...INTERNATIONAL WEATHER...

CITY           SKY/WX    TMP DP  RH WIND       PRES   REMARKS
NASSAU BAHAMAS PTSUNNY  N/A N/A N/A W10       30.17S
CANCUN MEXICO  PTSUNNY   73  54  49 N14       30.24F
COZUMEL MEXICO PTSUNNY   70  57  64 N14       30.24F

ADJACENT COASTAL WATERS...

STATION/POSITION TIME  SKY/WX   TEMP    WIND        PRES    WAVE
                                AIR SEA DIR/SP/G            HT/PER
                 (UTC)          (F)     (DEG/KT/KT) (MB)    (FT/S)
PULASKI SHOAL LI 1900                                 N/A
SAND KEY         1950            63      20/  6/  9 1022.7F
SOMBRERO KEY     NOT AVBL
LONG KEY         1900            60 65  360/  2/  3 1023.2F
MOLASSES REEF    2000            62 71  300/  5/  6 1022.1F
FOWEY ROCKS      NOT AVBL

$$



USA.gov is the U.S. government's official web portal to all federal, state and local government web resources and services.